Location: Bishopstone
(51.0167°N, 1.9000°W)
Time: 08:20:08
(UTC+00:00)

Cosmos 2074 Rocket - Pass Details

Date: 16 September 2019
Orbit: 966 x 987 km, 82.9° (Epoch: 14 October)

Event Time Altitude Azimuth Distance (km) Brightness Sun altitude
Rises 19:12:40 0° 349° (NNW) 3,694 7.4 -8.9°
Reaches altitude 10° 19:15:11 10° 348° (NNW) 2,739 6.7 -9.3°
Maximum altitude 19:21:27 77° 264° (W) 1,002 4.2 -10.3°
Drops below altitude 10° 19:27:39 10° 179° (S) 2,707 6.1 -11.2°
Sets 19:30:08 0° 178° (S) 3,648 6.8 -11.6°
